Tracking 31027 objects as of 19-Jul-2025
HD Live streaming from Space Station
objects crossing your sky now

NOAA 16 DEB

Track NOAA 16 DEB now!
10-day predictions


NORAD ID: 42428
Int'l Code: 2000-055TY
Perigee: 790.7 km
Apogee: 828.4 km
Inclination: 98.9 °
Period: 100.9 minutes
Semi major axis: 7180 km
RCS: Unknown
Launch date: September 21, 2000
Source: United States (US)
Launch site: AIR FORCE WESTERN TEST RANGE (AFWTR)

Note: This is SATELLITE DEBRIS
Your satellite tracking list
Your tracking list is empty




NASA's NSSDC Master Catalog

Two Line Element Set (TLE):
1 42428U 00055TY  25195.57885536  .00001216  00000-0  51857-3 0  9998
2 42428  98.9356 325.9819 0026264 127.3133 233.0445 14.26811280442610
Source of the keplerian elements: AFSPC